Time,TemperatureF,DewpointF,PressureIn,WindDirection,WindDirectionDegrees,WindSpeedMPH,WindSpeedGustMPH,Humidity,HourlyPrecipIn,Conditions,Clouds,dailyrainin,SoftwareType,DateUTC
2013-02-27 00:02:00,65.0,65.0,29.89,West,270,4.0,6.0,100,99.99,,,-99.99,,2013-02-27 05:02:00,
2013-02-27 00:12:00,65.0,65.0,29.89,West,270,4.0,6.0,100,99.99,,,-99.99,,2013-02-27 05:12:00,
2013-02-27 00:22:00,65.0,65.0,29.89,West,266,3.0,8.0,100,99.99,,,-99.99,,2013-02-27 05:22:00,
2013-02-27 00:32:00,65.0,65.0,29.89,West,259,3.0,6.0,100,99.99,,,-99.99,,2013-02-27 05:32:00,
2013-02-27 00:42:00,65.0,65.0,29.89,West,259,3.0,6.0,100,99.99,,,-99.99,,2013-02-27 05:42:00,
2013-02-27 00:52:00,65.0,65.0,29.89,West,266,2.0,6.0,100,99.99,,,-99.99,,2013-02-27 05:52:00,
2013-02-27 01:02:00,65.0,65.0,29.90,West,281,4.0,7.0,100,99.99,,,-99.99,,2013-02-27 06:02:00,
2013-02-27 01:11:00,65.0,65.0,29.90,West,281,4.0,7.0,100,99.99,,,-99.99,,2013-02-27 06:11:00,
2013-02-27 01:21:00,65.0,65.0,29.90,West,280,4.0,6.0,100,99.99,,,-99.99,,2013-02-27 06:21:00,
2013-02-27 01:33:00,65.0,65.0,29.90,WSW,257,5.0,10.0,100,99.99,,,-99.99,,2013-02-27 06:33:00,
2013-02-27 01:42:00,65.0,65.0,29.90,WSW,257,5.0,10.0,100,99.99,,,-99.99,,2013-02-27 06:42:00,
2013-02-27 01:52:00,64.0,64.0,29.90,West,269,3.0,4.0,100,99.99,,,-99.99,,2013-02-27 06:52:00,
2013-02-27 02:01:00,64.0,64.0,29.90,West,273,3.0,6.0,100,99.99,,,-99.99,,2013-02-27 07:01:00,
2013-02-27 02:12:00,64.0,64.0,29.90,West,273,3.0,6.0,100,99.99,,,-99.99,,2013-02-27 07:12:00,
2013-02-27 02:21:00,64.0,64.0,29.90,West,276,3.0,6.0,100,99.99,,,-99.99,,2013-02-27 07:21:00,
2013-02-27 02:32:00,64.0,64.0,29.89,WNW,290,1.0,4.0,100,99.99,,,-99.99,,2013-02-27 07:32:00,
2013-02-27 02:42:00,64.0,64.0,29.89,WNW,290,1.0,4.0,100,99.99,,,-99.99,,2013-02-27 07:42:00,
2013-02-27 02:52:00,63.0,63.0,29.89,WNW,288,3.0,4.0,100,99.99,,,-99.99,,2013-02-27 07:52:00,
2013-02-27 03:01:00,63.0,63.0,29.89,West,267,3.0,5.0,100,99.99,,,-99.99,,2013-02-27 08:01:00,
2013-02-27 03:11:00,63.0,63.0,29.89,West,267,3.0,5.0,100,99.99,,,-99.99,,2013-02-27 08:11:00,
2013-02-27 03:21:00,63.0,63.0,29.89,North,0,0.0,0.0,100,99.99,,,-99.99,,2013-02-27 08:21:00,
2013-02-27 03:32:00,62.0,62.0,29.89,West,271,0.0,2.0,100,99.99,,,-99.99,,2013-02-27 08:32:00,
2013-02-27 03:42:00,62.0,62.0,29.89,West,271,0.0,2.0,100,99.99,,,-99.99,,2013-02-27 08:42:00,
2013-02-27 03:53:00,62.0,62.0,29.88,North,0,0.0,0.0,100,99.99,,,-99.99,,2013-02-27 08:53:00,
2013-02-27 04:02:00,62.0,62.0,29.89,North,0,0.0,0.0,100,99.99,,,-99.99,,2013-02-27 09:02:00,
2013-02-27 04:12:00,62.0,62.0,29.89,North,0,0.0,0.0,100,99.99,,,-99.99,,2013-02-27 09:12:00,
2013-02-27 04:22:00,62.0,62.0,29.89,WSW,253,1.0,3.0,100,99.99,,,-99.99,,2013-02-27 09:22:00,
2013-02-27 04:32:00,61.0,61.0,29.89,North,0,0.0,0.0,100,99.99,,,-99.99,,2013-02-27 09:32:00,
2013-02-27 04:42:00,61.0,61.0,29.89,North,0,0.0,0.0,100,99.99,,,-99.99,,2013-02-27 09:42:00,
2013-02-27 04:52:00,61.0,61.0,29.90,North,0,0.0,0.0,100,99.99,,,-99.99,,2013-02-27 09:52:00,
2013-02-27 05:01:00,61.0,61.0,29.90,North,0,0.0,0.0,100,99.99,,,-99.99,,2013-02-27 10:01:00,
2013-02-27 05:12:00,61.0,61.0,29.90,North,0,0.0,0.0,100,99.99,,,-99.99,,2013-02-27 10:12:00,
2013-02-27 05:22:00,61.0,61.0,29.90,North,0,0.0,0.0,100,99.99,,,-99.99,,2013-02-27 10:22:00,
2013-02-27 05:32:00,61.0,61.0,29.90,North,352,2.0,5.0,100,99.99,,,-99.99,,2013-02-27 10:32:00,
2013-02-27 05:42:00,61.0,61.0,29.90,North,352,2.0,5.0,100,99.99,,,-99.99,,2013-02-27 10:42:00,
2013-02-27 05:53:00,61.0,61.0,29.90,NW,318,1.0,5.0,100,99.99,,,-99.99,,2013-02-27 10:53:00,
2013-02-27 06:02:00,62.0,62.0,29.91,NNW,345,3.0,5.0,100,99.99,,,-99.99,,2013-02-27 11:02:00,
2013-02-27 06:12:00,62.0,62.0,29.91,NNW,345,3.0,5.0,100,99.99,,,-99.99,,2013-02-27 11:12:00,
2013-02-27 06:22:00,62.0,62.0,29.91,NW,314,0.0,3.0,100,99.99,,,-99.99,,2013-02-27 11:22:00,
2013-02-27 06:32:00,62.0,62.0,29.91,NW,309,1.0,2.0,100,99.99,,,-99.99,,2013-02-27 11:32:00,
2013-02-27 06:42:00,62.0,62.0,29.91,NW,309,1.0,2.0,100,99.99,,,-99.99,,2013-02-27 11:42:00,
2013-02-27 06:52:00,61.0,61.0,29.91,North,0,0.0,0.0,100,99.99,,,-99.99,,2013-02-27 11:52:00,
2013-02-27 07:02:00,61.0,61.0,29.92,North,0,0.0,0.0,100,99.99,,,-99.99,,2013-02-27 12:02:00,
2013-02-27 07:13:00,61.0,61.0,29.92,North,0,0.0,0.0,100,99.99,,,-99.99,,2013-02-27 12:13:00,
2013-02-27 07:22:00,60.0,60.0,29.92,North,0,0.0,0.0,100,99.99,,,-99.99,,2013-02-27 12:22:00,
2013-02-27 07:33:00,60.0,60.0,29.93,North,0,0.0,0.0,100,99.99,,,-99.99,,2013-02-27 12:33:00,
2013-02-27 07:42:00,60.0,60.0,29.93,North,0,0.0,0.0,100,99.99,,,-99.99,,2013-02-27 12:42:00,
2013-02-27 07:53:00,60.0,60.0,29.93,North,0,0.0,0.0,100,99.99,,,-99.99,,2013-02-27 12:53:00,
2013-02-27 08:02:00,60.0,60.0,29.93,North,0,0.0,0.0,100,99.99,,,-99.99,,2013-02-27 13:02:00,
2013-02-27 08:11:00,60.0,60.0,29.93,North,0,0.0,0.0,100,99.99,,,-99.99,,2013-02-27 13:11:00,
2013-02-27 08:22:00,62.0,62.0,29.94,NW,308,1.0,3.0,100,99.99,,,-99.99,,2013-02-27 13:22:00,
2013-02-27 08:32:00,62.0,62.0,29.95,NW,304,1.0,2.0,100,99.99,,,-99.99,,2013-02-27 13:32:00,
2013-02-27 08:42:00,62.0,62.0,29.95,NW,304,1.0,2.0,100,99.99,,,-99.99,,2013-02-27 13:42:00,
2013-02-27 08:52:00,64.0,64.0,29.95,North,6,3.0,6.0,100,99.99,,,-99.99,,2013-02-27 13:52:00,
2013-02-27 09:02:00,65.0,65.0,29.96,North,350,5.0,9.0,100,99.99,,,-99.99,,2013-02-27 14:02:00,
2013-02-27 09:12:00,65.0,65.0,29.96,North,350,5.0,9.0,100,99.99,,,-99.99,,2013-02-27 14:12:00,
2013-02-27 09:22:00,66.0,65.0,29.96,NW,322,4.0,9.0,95,99.99,,,-99.99,,2013-02-27 14:22:00,
2013-02-27 09:32:00,66.0,62.0,29.97,NNW,333,5.0,9.0,86,99.99,,,-99.99,,2013-02-27 14:32:00,
2013-02-27 09:42:00,66.0,62.0,29.97,NNW,333,5.0,9.0,86,99.99,,,-99.99,,2013-02-27 14:42:00,
2013-02-27 09:52:00,66.0,60.0,29.98,NNW,330,5.0,9.0,82,99.99,,,-99.99,,2013-02-27 14:52:00,
2013-02-27 10:02:00,67.0,60.0,29.98,North,7,4.0,9.0,78,99.99,,,-99.99,,2013-02-27 15:02:00,
2013-02-27 10:12:00,67.0,60.0,29.98,North,7,4.0,9.0,78,99.99,,,-99.99,,2013-02-27 15:12:00,
2013-02-27 10:22:00,67.0,58.0,29.98,NW,325,7.0,11.0,73,99.99,,,-99.99,,2013-02-27 15:22:00,
2013-02-27 10:32:00,67.0,58.0,29.98,NNE,23,5.0,7.0,73,99.99,,,-99.99,,2013-02-27 15:32:00,
2013-02-27 10:42:00,67.0,58.0,29.98,NNE,23,5.0,7.0,73,99.99,,,-99.99,,2013-02-27 15:42:00,
2013-02-27 10:52:00,68.0,57.0,29.98,NNW,333,6.0,11.0,69,99.99,,,-99.99,,2013-02-27 15:52:00,
2013-02-27 11:02:00,69.0,58.0,29.98,NW,309,6.0,10.0,69,99.99,,,-99.99,,2013-02-27 16:02:00,
2013-02-27 11:12:00,69.0,58.0,29.98,NW,309,6.0,10.0,69,99.99,,,-99.99,,2013-02-27 16:12:00,
2013-02-27 11:22:00,68.0,57.0,29.98,NW,321,4.0,8.0,69,99.99,,,-99.99,,2013-02-27 16:22:00,
2013-02-27 11:32:00,68.0,55.0,29.97,NW,325,6.0,10.0,64,99.99,,,-99.99,,2013-02-27 16:32:00,
2013-02-27 11:42:00,68.0,55.0,29.97,NW,325,6.0,10.0,64,99.99,,,-99.99,,2013-02-27 16:42:00,
2013-02-27 11:52:00,70.0,56.0,29.97,WNW,297,5.0,10.0,61,99.99,,,-99.99,,2013-02-27 16:52:00,
2013-02-27 12:02:00,69.0,56.0,29.98,NNW,339,4.0,10.0,63,99.99,,,-99.99,,2013-02-27 17:02:00,
2013-02-27 12:11:00,69.0,56.0,29.98,NNW,339,4.0,10.0,63,99.99,,,-99.99,,2013-02-27 17:11:00,
2013-02-27 12:21:00,70.0,55.0,29.96,NE,34,5.0,12.0,59,99.99,,,-99.99,,2013-02-27 17:21:00,
2013-02-27 12:32:00,71.0,54.0,29.96,WNW,302,7.0,11.0,54,99.99,,,-99.99,,2013-02-27 17:32:00,
2013-02-27 12:42:00,71.0,54.0,29.96,WNW,302,7.0,11.0,54,99.99,,,-99.99,,2013-02-27 17:42:00,
2013-02-27 12:52:00,71.0,54.0,29.96,WNW,295,5.0,10.0,54,99.99,,,-99.99,,2013-02-27 17:52:00,
2013-02-27 13:02:00,72.0,54.0,29.96,West,276,7.0,12.0,53,99.99,,,-99.99,,2013-02-27 18:02:00,
2013-02-27 13:11:00,72.0,54.0,29.96,West,276,7.0,12.0,53,99.99,,,-99.99,,2013-02-27 18:11:00,
2013-02-27 13:22:00,74.0,54.0,29.95,WSW,256,6.0,12.0,49,99.99,,,-99.99,,2013-02-27 18:22:00,
2013-02-27 13:32:00,74.0,54.0,29.95,NW,304,5.0,9.0,49,99.99,,,-99.99,,2013-02-27 18:32:00,
2013-02-27 13:42:00,74.0,54.0,29.95,NW,304,5.0,9.0,49,99.99,,,-99.99,,2013-02-27 18:42:00,
2013-02-27 13:52:00,74.0,53.0,29.94,NW,305,3.0,10.0,48,99.99,,,-99.99,,2013-02-27 18:52:00,
2013-02-27 14:01:00,75.0,53.0,29.93,NNW,333,5.0,9.0,46,99.99,,,-99.99,,2013-02-27 19:01:00,
2013-02-27 14:12:00,75.0,53.0,29.93,NNW,333,5.0,9.0,46,99.99,,,-99.99,,2013-02-27 19:12:00,
2013-02-27 14:21:00,75.0,52.0,29.92,WNW,290,6.0,10.0,44,99.99,,,-99.99,,2013-02-27 19:21:00,
2013-02-27 14:32:00,76.0,50.0,29.92,NNW,328,5.0,11.0,40,99.99,,,-99.99,,2013-02-27 19:32:00,
2013-02-27 14:42:00,76.0,50.0,29.92,NNW,328,5.0,11.0,40,99.99,,,-99.99,,2013-02-27 19:42:00,
2013-02-27 14:52:00,76.0,51.0,29.91,NW,304,5.0,10.0,41,99.99,,,-99.99,,2013-02-27 19:52:00,
2013-02-27 15:01:00,77.0,51.0,29.90,WSW,238,5.0,10.0,41,99.99,,,-99.99,,2013-02-27 20:01:00,
2013-02-27 15:12:00,77.0,51.0,29.90,WSW,238,5.0,10.0,41,99.99,,,-99.99,,2013-02-27 20:12:00,
2013-02-27 15:22:00,77.0,50.0,29.90,WSW,252,5.0,9.0,39,99.99,,,-99.99,,2013-02-27 20:22:00,
2013-02-27 15:32:00,78.0,47.0,29.90,WNW,293,7.0,11.0,34,99.99,,,-99.99,,2013-02-27 20:32:00,
2013-02-27 15:52:00,77.0,48.0,29.90,WNW,285,6.0,12.0,36,99.99,,,-99.99,,2013-02-27 20:52:00,
2013-02-27 16:02:00,77.0,49.0,29.90,West,281,6.0,12.0,38,99.99,,,-99.99,,2013-02-27 21:02:00,
2013-02-27 16:11:00,77.0,49.0,29.90,West,281,6.0,12.0,38,99.99,,,-99.99,,2013-02-27 21:11:00,
2013-02-27 16:22:00,77.0,48.0,29.90,West,277,8.0,16.0,36,99.99,,,-99.99,,2013-02-27 21:22:00,
2013-02-27 16:32:00,77.0,47.0,29.91,NW,305,5.0,9.0,35,99.99,,,-99.99,,2013-02-27 21:32:00,
2013-02-27 16:42:00,77.0,47.0,29.91,NW,305,5.0,9.0,35,99.99,,,-99.99,,2013-02-27 21:42:00,
2013-02-27 16:52:00,75.0,47.0,29.91,West,277,10.0,14.0,37,99.99,,,-99.99,,2013-02-27 21:52:00,
2013-02-27 17:01:00,74.0,46.0,29.91,SW,233,8.0,18.0,37,99.99,,,-99.99,,2013-02-27 22:01:00,
2013-02-27 17:21:00,74.0,47.0,29.91,West,269,8.0,14.0,39,99.99,,,-99.99,,2013-02-27 22:21:00,
2013-02-27 17:32:00,73.0,48.0,29.92,West,271,7.0,12.0,41,99.99,,,-99.99,,2013-02-27 22:32:00,
2013-02-27 17:52:00,72.0,47.0,29.92,WNW,297,8.0,13.0,41,99.99,,,-99.99,,2013-02-27 22:52:00,
2013-02-27 18:01:00,72.0,49.0,29.92,West,281,8.0,13.0,45,99.99,,,-99.99,,2013-02-27 23:01:00,
2013-02-27 18:11:00,72.0,49.0,29.92,West,281,8.0,13.0,45,99.99,,,-99.99,,2013-02-27 23:11:00,
2013-02-27 18:21:00,70.0,50.0,29.93,West,274,7.0,12.0,49,99.99,,,-99.99,,2013-02-27 23:21:00,
2013-02-27 18:32:00,69.0,50.0,29.93,West,259,6.0,10.0,51,99.99,,,-99.99,,2013-02-27 23:32:00,
2013-02-27 18:42:00,69.0,50.0,29.93,West,259,6.0,10.0,51,99.99,,,-99.99,,2013-02-27 23:42:00,
2013-02-27 18:53:00,69.0,52.0,29.93,West,278,6.0,9.0,55,99.99,,,-99.99,,2013-02-27 23:53:00,
2013-02-27 19:02:00,68.0,52.0,29.93,WSW,255,5.0,8.0,56,99.99,,,-99.99,,2013-02-28 00:02:00,
2013-02-27 19:12:00,68.0,52.0,29.93,WSW,255,5.0,8.0,56,99.99,,,-99.99,,2013-02-28 00:12:00,
2013-02-27 19:21:00,68.0,53.0,29.93,WNW,295,4.0,7.0,59,99.99,,,-99.99,,2013-02-28 00:21:00,
2013-02-27 19:32:00,67.0,52.0,29.94,WNW,302,6.0,9.0,59,99.99,,,-99.99,,2013-02-28 00:32:00,
2013-02-27 19:42:00,67.0,52.0,29.94,WNW,302,6.0,9.0,59,99.99,,,-99.99,,2013-02-28 00:42:00,
2013-02-27 19:52:00,67.0,-99.9,29.96,WNW,297,5.0,9.0,0,99.99,,,-99.99,,2013-02-28 00:52:00,
2013-02-27 20:01:00,66.0,-99.9,29.95,NW,311,4.0,6.0,0,99.99,,,-99.99,,2013-02-28 01:01:00,
2013-02-27 20:11:00,66.0,-99.9,29.95,NW,311,4.0,6.0,0,99.99,,,-99.99,,2013-02-28 01:11:00,
2013-02-27 20:22:00,66.0,52.0,29.95,WNW,284,3.0,5.0,61,99.99,,,-99.99,,2013-02-28 01:22:00,
2013-02-27 20:32:00,65.0,53.0,29.96,NW,311,5.0,9.0,64,99.99,,,-99.99,,2013-02-28 01:32:00,
2013-02-27 20:42:00,65.0,53.0,29.96,NW,311,5.0,9.0,64,99.99,,,-99.99,,2013-02-28 01:42:00,
2013-02-27 20:52:00,65.0,52.0,29.95,NW,305,6.0,9.0,62,99.99,,,-99.99,,2013-02-28 01:52:00,
2013-02-27 21:01:00,64.0,50.0,29.95,NNW,338,5.0,11.0,60,99.99,,,-99.99,,2013-02-28 02:01:00,
2013-02-27 21:11:00,64.0,50.0,29.95,NNW,338,5.0,11.0,60,99.99,,,-99.99,,2013-02-28 02:11:00,
2013-02-27 21:22:00,63.0,50.0,29.96,NW,307,5.0,8.0,63,99.99,,,-99.99,,2013-02-28 02:22:00,
2013-02-27 21:32:00,63.0,51.0,29.96,West,271,4.0,6.0,64,99.99,,,-99.99,,2013-02-28 02:32:00,
2013-02-27 21:41:00,63.0,51.0,29.96,West,271,4.0,6.0,64,99.99,,,-99.99,,2013-02-28 02:41:00,
2013-02-27 21:52:00,63.0,51.0,29.96,West,271,4.0,6.0,64,99.99,,,-99.99,,2013-02-28 02:52:00,
2013-02-27 22:01:00,61.0,51.0,29.98,NW,322,4.0,8.0,69,99.99,,,-99.99,,2013-02-28 03:01:00,
2013-02-27 22:11:00,61.0,51.0,29.98,NW,322,4.0,8.0,69,99.99,,,-99.99,,2013-02-28 03:11:00,
2013-02-27 22:21:00,60.0,50.0,29.97,North,359,4.0,7.0,69,99.99,,,-99.99,,2013-02-28 03:21:00,
2013-02-27 22:32:00,60.0,50.0,29.98,NW,318,4.0,7.0,70,99.99,,,-99.99,,2013-02-28 03:32:00,
2013-02-27 22:42:00,60.0,50.0,29.98,NW,318,4.0,7.0,70,99.99,,,-99.99,,2013-02-28 03:42:00,
2013-02-27 22:52:00,60.0,51.0,29.98,NNW,340,3.0,6.0,72,99.99,,,-99.99,,2013-02-28 03:52:00,
2013-02-27 23:02:00,59.0,50.0,29.98,WNW,294,5.0,9.0,72,99.99,,,-99.99,,2013-02-28 04:02:00,
2013-02-27 23:11:00,59.0,50.0,29.98,WNW,294,5.0,9.0,72,99.99,,,-99.99,,2013-02-28 04:11:00,
2013-02-27 23:22:00,59.0,50.0,29.98,NNW,328,4.0,8.0,71,99.99,,,-99.99,,2013-02-28 04:22:00,
2013-02-27 23:32:00,59.0,51.0,29.98,NNW,345,5.0,7.0,74,99.99,,,-99.99,,2013-02-28 04:32:00,
2013-02-27 23:42:00,59.0,51.0,29.98,NNW,345,5.0,7.0,74,99.99,,,-99.99,,2013-02-28 04:42:00,
2013-02-27 23:52:00,59.0,51.0,29.98,WNW,297,4.0,6.0,74,99.99,,,-99.99,,2013-02-28 04:52:00,